星链-35578(STARLINK-35578)

导读

STARLINK-35578是美国SpaceX公司星链星座的成员卫星,于2025年10月25日发射入轨。星链项目旨在搭建全球卫星互联网星座,为全球提供高速低延迟网络服务。该卫星延续星链标准设计,依托一箭多星发射模式部署,进一步扩充了星链星座的在轨规模,提升星座覆盖密度与服务能力。

Basic Information
目录编号:
66168
目录名称:
STARLINK-35578
国际标识:
2025-240Y
轨道中心:
EARTH
卫星名称:
星链-35578
卫星全名:
星链-35578(STARLINK-35578)
卫星状态:
在轨 (已飞行314 天)
发射日期:
2025-10-25 UTC
国别 :
美国 (US)
星等 :
--
Orbit Information
数据来源 国际轨道数据
星历时间: 2026-09-03T22:05:32+0800
23小时前
查看轨道信息
半长轴: 6840.853km
偏心率: 0.0001208
轨道倾角: 53.159°
近地点辐角 80.313°
升交点赤经 314.483°
平近点角 279.801°
近地点: 461.889km
远地点: 463.543km
周期: 93.848分钟
每日圈数: 15.343958
Detailed Information
固有亮度:
5
最大亮度:
2.5
卫星平台:
Starlink V1.0
覆盖范围:
全球
运营商:
太空探索技术公司
运营商所在国:
美国
制造商(研发单位):
太空探索技术公司
制造商所在国:
美国
使用方式:
暂无
Satellite Introduction
Starlink 计划是 SpaceX 推出的全球卫星互联网项目,通过发射低轨道卫星,为全球尤其是偏远地区提供高速、低延迟的互联网服务。自 2019 年起,Starlink 已部署数千颗卫星,旨在缩小全球数字鸿沟,推动互联网普及。该项目还为军事、航空等行业提供通信支持,带来广泛经济效益。
2D Orbit Map
3D Orbit Map
Orbit Altitude Analysis Chart
Orbit Inclination Analysis Chart
Orbit Comprehensive Analysis Chart
View Comprehensive Chart
Conjunction Data List
Event ID Objects TCA Miss Dist (km) Collision Risk Probability Collision Risk Index (CRI) Action
CDM_260905-064505-396606-616821
2026-09-05T
06:45:32+0000
2.930 km
极远距离
1.234742E-6 低风险 0.37
CDM_260906-015005-186706-616821
2026-09-06T
01:50:33+0000
2.824 km
极远距离
6.387139E-7 极低风险 0.31